Location: Poughquag
(41.6090°N, 73.6820°W)
Time: 12:02:03
(UTC-04:00)

A-11 Canister half - Pass Details

Date: 03 June 2020
Orbit: 1527 x 1682 km, 47.3° (Epoch: 06 July)

Event Time Altitude Azimuth Distance (km) Brightness Sun altitude
Rises 07:21:36 0° 236° (WSW) 4,674 11.0 19.8°
Reaches altitude 10° 07:24:37 10° 236° (SW) 3,688 10.5 20.4°
Maximum altitude 07:33:55 82° 150° (SSE) 1,547 9.5 22.1°
Drops below altitude 10° 07:43:21 10° 65° (ENE) 3,741 12.7 23.8°
Sets 07:46:26 0° 65° (ENE) 4,743 12.8 24.4°
